{"data":{"norad_id":48464,"intl_designator":"2021-040AN","name":"STARLINK-2686","alt_names":[],"object_type":"PAYLOAD","status":"ACTIVE","operator":null,"country":"US","launch_date":"2021-05-09","launch_site_code":"AFETR","launch_vehicle":null,"mission":null,"orbit_class":"UNKNOWN","rcs_meters":null,"size_class":null,"mass_kg":null,"dimensions":null,"purposes":["comms"],"wikipedia_slug":null,"has_3d_model":false,"image_url":null,"decayed_at":null,"tle_current":{"epoch":"2026-09-19T22:33:34.666848Z","epoch_age_seconds":85570,"freshness":"FRESH","line1":"1 48464U 21040AN  26262.93998457  .00001013  00000+0  44409-4 0  9994","line2":"2 48464  53.1610   7.1835 0001180  73.6043 286.5088 15.31702880296268","mean_motion":15.3170288,"eccentricity":0.000118,"inclination_deg":53.161,"raan_deg":7.1835,"arg_perigee_deg":73.6043,"mean_anomaly_deg":286.5088,"bstar":4.4409e-5,"rev_number":29626,"period_min":94.013011191831,"perigee_km":469.92324363657,"apogee_km":471.53957658136,"semimajor_km":6848.868410109,"source":"CELESTRAK","updated_at":"2026-09-20T09:00:39.128061Z"}}}